Location: Newark
(46.9000°N, 28.3500°E)
Time: 22:11:28
(UTC+00:00)

Vanguard 1 Rocket - All Passes

Search period start: 25 August 2019 00:00
Search period end: 04 September 2019 00:00
Orbit: 652 x 4224 km, 34.3° (Epoch: 24 August)

Date Brightness Start Highest point End Pass type
(mag) Time Alt. Az. Time Alt. Az. Time Alt. Az.
25 Aug - 01:49:41 10° SW 01:53:27 23° S 01:58:30 10° SE visible
25 Aug - 04:13:37 10° SW 04:18:05 19° SSW 04:24:23 10° SSE daylight
26 Aug - 00:39:40 10° SW 00:42:51 19° S 00:46:35 10° SE visible
26 Aug - 03:03:03 10° SW 03:07:02 20° S 03:12:33 10° SE daylight
26 Aug - 05:30:05 10° SW 05:32:15 11° SSW 05:34:42 10° S daylight
26 Aug - 23:29:50 10° SSW 23:32:19 15° SSE 23:34:52 10° SE visible
27 Aug - 01:52:43 10° SW 01:56:15 20° S 02:00:46 10° SE visible
27 Aug - 04:17:39 10° SW 04:20:54 14° SSW 04:25:00 10° SSE daylight
27 Aug - 22:20:47 10° S 22:21:43 10° SSE 22:22:37 10° SSE night (unlit)
28 Aug - 00:42:27 10° SW 00:45:37 19° S 00:49:13 10° SE visible
28 Aug - 03:06:34 10° SW 03:09:51 16° S 03:14:03 10° SSE daylight
28 Aug - 23:32:11 10° SSW 23:35:03 16° S 23:37:56 10° SE visible
29 Aug - 01:55:55 10° SW 01:59:02 17° S 02:02:51 10° SE visible
29 Aug - 22:21:57 10° SSW 22:24:26 14° SSE 22:26:45 10° SE night (unlit)
30 Aug - 00:45:21 10° SW 00:48:23 18° S 00:51:44 10° SE visible
30 Aug - 03:10:49 10° SW 03:12:39 12° SSW 03:14:45 10° S daylight
30 Aug - 21:12:06 10° S 21:13:42 11° SSE 21:15:10 10° SSE night (unlit)
30 Aug - 23:34:43 10° SW 23:37:48 18° S 23:40:50 10° SE visible
31 Aug - 01:59:23 10° SW 02:01:49 14° S 02:04:35 10° SSE visible
31 Aug - 22:23:56 10° SW 22:27:12 17° S 22:30:05 10° SE night (unlit)
01 Sep - 00:48:25 10° SW 00:51:08 16° S 00:54:05 10° SSE visible
01 Sep - 21:13:03 10° SSW 21:16:29 15° S 21:19:20 10° SE night (unlit)
01 Sep - 23:37:25 10° SW 23:40:34 18° S 23:43:35 10° SE night (unlit)
02 Sep - 02:04:17 10° SSW 02:04:35 10° SSW 02:04:52 10° SSW visible
02 Sep - 20:02:21 10° SSW 20:05:35 13° SSE 20:08:16 10° SE visible
02 Sep - 22:26:13 10° SW 22:29:59 19° S 22:33:11 10° SE night (unlit)
03 Sep - 00:51:44 10° SW 00:53:53 13° SSW 00:56:08 10° SSE visible
03 Sep - 18:52:51 10° S 18:54:25 11° SSE 18:55:51 10° SSE visible
03 Sep - 21:14:47 10° SW 21:19:17 19° S 21:22:47 10° SE night (unlit)
03 Sep - 23:40:15 10° SW 23:43:19 17° S 23:46:12 10° SSE night (unlit)
